Location: Unspecified
(0.0000°N, 0.0000°E)
Time: 17:32:50
(UTC+00:00)

N. Korean satellite - Visible Passes

Search period start: 24 May 2017 00:00
Search period end: 03 June 2017 00:00
Orbit: 463 x 516 km, 97.2° (Epoch: 24 May)

Date Brightness Start Highest point End Pass type
(mag) Time Alt. Az. Time Alt. Az. Time Alt. Az.
24 May 7.2 18:50:48 10° S 18:54:20 57° W 18:57:56 10° NNW visible
25 May 6.7 18:28:02 10° SSE 18:31:35 54° E 18:35:11 10° N visible
27 May 9.1 19:16:34 10° SSW 19:19:23 21° W 19:22:14 10° NW visible
28 May 7.5 18:53:04 10° S 18:56:37 51° W 19:00:12 10° NNW visible
29 May 6.7 18:30:14 10° SSE 18:33:51 61° E 18:37:30 10° N visible
31 May 9.2 19:18:54 10° SSW 19:21:37 20° W 19:24:21 10° NW visible
01 Jun 7.7 18:55:18 10° S 18:58:51 46° W 19:02:26 10° NNW visible
02 Jun 6.6 18:32:24 10° SSE 18:36:04 69° E 18:39:46 10° N visible
